Skip Page Navigation
NASA JPL Caltech
NASA Logo - Jet Propulsion Laboratory + View the NASA Portal
+ Center for Near-Earth Object Studies
JPL Home Earth Solar System Stars & Galaxies Technology
JPL Solar System Dynamics
BODIES ORBITS EPHEMERIDES TOOLS PHYSICAL DATA DISCOVERY FAQ SITE MAP
IMPORTANT: The SSD Announcement email list is now available. Major changes are coming in the near future, including possible hostname and/or URL changes. To be notified of such changes, subscribe to this email list.

Please visit this page for more details.


JPL Small-Body Database Browser
Search: [ help ]  
214543 (2006 OY9)
Classification: Main-belt Asteroid          SPK-ID: 2214543
Ephemeris | Orbit Diagram | Orbital Elements | Mission Design | Physical Parameters | Discovery Circumstances ]

[ show orbit diagram ]
Orbital Elements at Epoch 2458600.5 (2019-Apr-27.0) TDB
Reference: JPL 12 (heliocentric ecliptic J2000)
 Element Value Uncertainty (1-sigma)   Units 
e .2276743158608093 5.6384e-08  
a 2.316972484662578 1.4995e-08 au
q 1.789457359348706 1.2723e-07 au
i 2.131715916015545 6.1503e-06 deg
node 169.4871807872256 0.00015802 deg
peri 165.4073092895014 0.000159 deg
M 198.5279355094649 2.2279e-05 deg
tp 2459178.296143148655
(2020-Nov-24.79614315)
8.3117e-05 TDB
period 1288.189459828876
3.53
1.2506e-05
3.424e-08
d
yr
n .2794619978087871 2.713e-09 deg/d
Q 2.84448760997645 1.8409e-08 au
  Orbit Determination Parameters
   # obs. used (total)      240  
   data-arc span      7153 days (19.58 yr)  
   first obs. used      1999-07-13  
   last obs. used      2019-02-11  
   planetary ephem.      DE431  
   SB-pert. ephem.      SB431-N16  
   condition code      0  
   norm. resid. RMS      .61991  
   source      ORB  
   producer      Otto Matic  
   solution date      2019-Jul-14 03:57:34  

Additional Information
 Earth MOID = .778825 au 
 Jupiter MOID = 2.53375 au 
 T_jup = 3.544 
[ show covariance matrix ]

Ephemeris | Orbit Diagram | Orbital Elements | Mission Design | Physical Parameters | Discovery Circumstances ]

Physical Parameter Table
Parameter Symbol Value Units Sigma Reference Notes
absolute magnitude H 17.1   n/a MPO437027  

214543 (2006 OY9)          Discovered 2006-Jul-18 by LINEAR at Socorro
Reference: 20090509/Numbers.arcLast Updated: 2009-05-11

Alternate Designations
 2006 OY9 = 2005 EY52 
Ephemeris | Orbit Diagram | Orbital Elements | Mission Design | Physical Parameters | Discovery Circumstances ]
ABOUT SSD CREDITS/AWARDS PRIVACY/COPYRIGHT GLOSSARY LINKS
FirstGov 2019-Dec-12 14:25 UT
(server date/time)  
NASA Home Page
Site Manager:   Ryan S. Park
Webmaster  Alan B. Chamberlin